Home   Weather   Kalamata   Past weeks

Flag for Greece Past Weather in Kalamata, Greece — Yesterday and Last 2 Weeks

Now
46 °F

Partly cloudy.


Feels Like: 46 °F
Forecast: 42 / 57 °F
Wind: No wind

Location: Kalamata Airport

Current Time: Jan 24, 2017 at 11:53:14 pm

Latest Report: Jan 24, 2017 at 10:50 pm


Visibility: N/A

Pressure: 29.89 "Hg

Humidity: 93%

Dew Point: 45 °F

Location of KalamataLocation

Past Weather in Kalamata — Graph

°F

Kalamata Temperature Yesterday

Maximum temperature yesterday: 52 °F (at 11:50 am)
Minimum temperature yesterday: 43 °F (at 3:50 am)
Average temperature yesterday: 47 °F

High & Low Weather Summary for the Past Weeks

 TemperatureHumidityPressure
High61 °F (Jan 14, 4:20 pm)100% (Jan 10, 11:50 pm)31.22 "Hg (Jan 10, 11:50 pm)
Low32 °F (Jan 10, 6:50 am)23% (Jan 12, 1:50 pm)29.77 "Hg (Jan 10, 4:50 am)
Average47 °F75%30.05 "Hg
* Reported Jan 9 10:50 pm — Jan 24 10:20 pm, Kalamata, Weather by CustomWeather, © 2017

Note: Actual official high and low records may vary slightly from our data, if they occured in-between our weather recording intervals... More about our weather records

Advertising

Kalamata Weather History for the Previous 24 Hours

Scroll right to see more
 ConditionsComfort  
Time TempWeatherWind HumidityBarometerVisibility
10:20 pm
Tue, Jan 24
46 °FPartly cloudy.No wind93%29.89 "HgN/A
9:50 pm48 °FPartly cloudy.5 mph87%29.89 "HgN/A
9:20 pm48 °FLight rain. Partly cloudy.6 mph87%29.89 "Hg6 mi
8:50 pm46 °FPassing clouds.7 mph87%29.89 "HgN/A
8:20 pm46 °FPassing clouds.6 mph87%29.86 "HgN/A
7:50 pm48 °FPassing clouds.5 mph82%29.86 "HgN/A
7:20 pm48 °FPassing clouds.No wind82%29.86 "HgN/A
6:50 pm50 °FPassing clouds.No wind76%29.86 "HgN/A
6:20 pm52 °FPassing clouds.No wind72%29.86 "HgN/A
5:50 pm52 °FPassing clouds.No wind77%29.86 "HgN/A
5:20 pm54 °FScattered clouds.No wind67%29.86 "HgN/A
4:50 pm57 °FScattered clouds.6 mph59%29.86 "HgN/A
4:20 pm59 °FScattered clouds.7 mph55%29.83 "HgN/A
3:50 pm59 °FScattered clouds.7 mph55%29.83 "HgN/A
3:20 pm55 °FScattered clouds.9 mph63%29.86 "HgN/A
2:50 pm55 °FBroken clouds.7 mph63%29.86 "HgN/A
2:20 pm55 °FBroken clouds.8 mph67%29.86 "HgN/A
1:50 pm55 °FFog.6 mph63%29.86 "Hg5 mi
1:20 pm52 °FFog.6 mph72%29.86 "Hg5 mi
12:50 pm50 °FFog.6 mph76%29.89 "Hg5 mi
12:20 pm50 °FFog.7 mph76%29.89 "Hg5 mi
11:50 am50 °FFog.6 mph76%29.92 "Hg5 mi
11:20 am48 °FFog.7 mph82%29.92 "Hg5 mi
10:50 am48 °FFog.7 mph87%29.92 "Hg5 mi
9:50 am46 °FLight rain. More clouds than sun.6 mph87%29.92 "Hg3 mi
9:20 am45 °FLight rain. More clouds than sun.7 mph93%29.92 "Hg3 mi
7:50 am45 °FLight rain. More clouds than sun.No wind87%29.92 "Hg3 mi
7:20 am45 °FLight rain. Mostly cloudy.No wind87%29.92 "Hg4 mi
6:50 am46 °FLight rain. Mostly cloudy.No wind82%29.89 "HgN/A
6:20 am46 °FMostly cloudy.6 mph82%29.89 "HgN/A
5:50 am46 °FMostly cloudy.9 mph82%29.89 "HgN/A
5:20 am45 °FMostly cloudy.9 mph87%29.92 "HgN/A
4:50 am45 °FMostly cloudy.8 mph87%29.92 "HgN/A
4:20 am45 °FMostly cloudy.5 mph87%29.95 "HgN/A
3:50 am45 °FMostly cloudy.8 mph87%29.95 "HgN/A
3:20 am45 °FMostly cloudy.6 mph100%29.98 "HgN/A
2:50 am45 °FMostly cloudy.8 mph87%29.98 "HgN/A
2:20 am45 °FLight rain. Mostly cloudy.8 mph87%29.98 "HgN/A
1:50 am45 °FLight rain. Mostly cloudy.6 mph87%30.01 "HgN/A
1:20 am45 °FLight rain. Mostly cloudy.No wind87%30.01 "HgN/A
12:50 am45 °FLight rain. Mostly cloudy.5 mph87%30.01 "HgN/A
11:50 pm
Mon, Jan 23
45 °FLight rain. Mostly cloudy.6 mph81%30.04 "HgN/A
11:20 pm45 °FMostly cloudy.7 mph81%30.04 "HgN/A
Weather by CustomWeather, © 2017

See weather overviewHow to use our weather pages